Regional Weather Roundup
Issued by NWS

Home | Current Version | Previous Version | Graphics & Text | Print | Product List | Glossary On
Versions: 1 2 3 4 5 6 7 8 9 10 11 12 13 14 15 16 17 18 19 20 21 22 23 24 25 26 27 28 29 30 31 32 33 34 35 36 37 38 39 40 41 42 43 44 45 46 47 48 49 50
610
ASUS43 KTOP 240659
RWRKS

WEATHER ROUNDUP FOR KANSAS
NATIONAL WEATHER SERVICE GOODLAND KS
100 AM CST TUE JAN 24 2017

NOTE:  "FAIR" INDICATES FEW OR NO CLOUDS BELOW 12,000 FEET WITH NO
SIGNIFICANT WEATHER AND/OR OBSTRUCTIONS TO VISIBILITY.

KSZ001>006-013>018-027>032-041>047-240800-
NORTHWEST KANSAS

CITY           SKY/WX    TMP DP  RH WIND       PRES   REMARKS
GOODLAND       CLOUDY    34  30  85 S13       29.44F WCI  25
HAYS           CLOUDY    36  31  82 E9        29.53F
HILL CITY      CLEAR     33  31  92 E9        29.54F
RUSSELL        CLOUDY    39  31  72 E14       29.53F WCI  31
$$

KSZ061>065-074>080-084>089-240800-
SOUTHWEST KANSAS

CITY           SKY/WX    TMP DP  RH WIND       PRES   REMARKS
DODGE CITY     CLOUDY    39  34  82 S10       29.50F WCI  32
ELKHART          N/A     48  26  42 SW14        N/A
GARDEN CITY    CLOUDY    36  30  79 SE9       29.48F
GREAT BEND     CLOUDY    35  31  85 SE9       29.54F
LIBERAL          N/A     52  32  46 SW17      29.50F
$$

KSZ066>073-081>083-090>101-240800-
SOUTHEAST KANSAS

CITY           SKY/WX    TMP DP  RH WIND       PRES   REMARKS
CHANUTE        CLEAR     39  32  76 E13       29.73F WCI  31
COFFEYVILLE    CLEAR     40  33  76 SE6       29.73F
HUTCHINSON     CLEAR     38  32  79 SE12      29.59F WCI  30
MEDICINE LODGE   N/A     40  31  70 SE10      29.55F WCI  33
NEWTON         CLEAR     38  32  79 SE16      29.63F WCI  29
PARSONS        CLEAR     43  33  68 SE7       29.73F
WICHITA INTL   CLEAR     43  31  62 SE14      29.61F
WICHITA JABRA  CLEAR     40  32  73 SE9       29.63F
WINFIELD       CLEAR     44  32  62 SE12      29.64F
$$

KSZ007>012-019>026-033>040-048>060-102>105-240800-
NORTHEAST KANSAS

CITY           SKY/WX    TMP DP  RH WIND       PRES   REMARKS
CONCORDIA      PTCLDY    34  33  96 E14       29.65F WCI  25
EMPORIA        CLEAR     33  32  96 E8        29.71F
LAWRENCE       CLEAR     28  28 100 E8        29.79F FOG
MANHATTAN      CLOUDY    35  32  88 E8        29.70F
OLATHE IND     CLEAR     32  31  96 E9        29.79F
OLATHE EXE     CLEAR     31  30  96 SE6       29.79F
SALINA           N/A    N/A N/A N/A MISG        N/A
TOPEKA BILLARD CLOUDY    32  28  85 E7        29.77F FOG
TOPEKA FORBES  CLEAR     33  30  88 E8        29.75F FOG
$$




USA.gov is the U.S. government's official web portal to all federal, state and local government web resources and services.